Powrót do katalogu

STARLINK-3239

AktywnyŁącznośćVLEO
NORAD 49743·PAYLOAD·🇺🇸 United States

Wystrzelony Dec 2, 2021 z Cape Canaveral Space Force Station

Loading…

Następne Przeloty (najbliższe 24 godziny)

TLE

ŚwieżeSource: CelesTrak SupGP

Epoka: Sep 14, 2026, 21:37 UTC

1 49743C 21115V   26257.90118056 -.00020282  00000+0 -65251-3 0  2573
2 49743  53.1594   5.9165 0000982  69.4457  37.9714 15.31697929    10

Śledź STARLINK-3239 w czasie rzeczywistym z AllMySat

Download on the App Store